Indianapolis, IN

8:50 PM EST on November 15, 2019 (GMT -0500)
Indianapolis Terry

Weather History for KTYQ - June, 2019

Change the Weather History Date:

Friday, June 7, 2019

  Actual Average (WUND) Record (WUND)
Temperature  
Mean Temperature 69 °F -  
Max Temperature 78 °F - - (-1)
Min Temperature 60 °F - - (-1)
Cooling Degree Days 4    
Growing Degree Days 19 (Base 50)    
Moisture  
Dew Point 59 °F    
Average Humidity 73    
Maximum Humidity 100    
Minimum Humidity 45    
Precipitation  
Precipitation 0.00 in - - ()
Sea Level Pressure  
Sea Level Pressure 29.91 in    
Wind  
Wind Speed 8 mph ()    
Max Wind Speed 17 mph    
Max Gust Speed 23 mph    
Visibility 8.0 miles    
Events      
Averages and records for this station are not official NWS values.
T = Trace of Precipitation, MM = Missing Value Source: Averaged Metar Reports

Daily Weather History Graph

Daily Weather History Graph

Search for Another Location

Airport or City:

Astronomy

Jun. 07, 2019 Rise Set
Actual Time 6:16 AM EDT 9:11 PM EDT
Civil Twilight 5:43 AM EDT 9:44 PM EDT
Nautical Twilight 5:02 AM EDT 10:25 PM EDT
Astronomical Twilight 4:15 AM EDT 11:13 PM EDT
Moon 10:32 AM EDT (6/7) 12:28 AM EDT (6/7)
Length of Visible Light 16h 00m
Length of Day
14h 55m
Waxing Crescent, 22% of the Moon is Illuminated
Jun 7
Waxing Crescent
Jun 10
First Quarter
Jun 17
Full
Jun 25
Last Quarter
Jul 2
New

Hourly Weather History & Observations

Time (EDT) Temp. Dew Point Humidity Pressure Visibility Wind Dir Wind Speed Gust Speed Precip Events Conditions
12:15 AM 69.1 °F 65.5 °F 88% 29.90 in 7.0 mi ENE 8.1 mph - N/A   Clear
12:35 AM 68.0 °F 65.7 °F 92% 29.90 in 7.0 mi ENE 5.8 mph - N/A   Clear
12:55 AM 67.5 °F 65.5 °F 93% 29.90 in 7.0 mi ENE 8.1 mph - N/A   Clear
1:15 AM 66.7 °F 65.3 °F 95% 29.90 in 7.0 mi ENE 5.8 mph - N/A   Clear
1:35 AM 66.2 °F 64.8 °F 95% 29.90 in 7.0 mi ENE 8.1 mph - N/A   Clear
1:55 AM 65.5 °F 64.6 °F 97% 29.89 in 7.0 mi ENE 5.8 mph - N/A   Clear
2:15 AM 65.1 °F 64.4 °F 98% 29.89 in 7.0 mi ENE 6.9 mph - N/A   Clear
2:35 AM 64.4 °F 64.2 °F 99% 29.89 in 7.0 mi ENE 5.8 mph - N/A   Clear
2:55 AM 63.7 °F 63.7 °F 100% 29.90 in 7.0 mi ENE 4.6 mph - N/A   Clear
3:15 AM 63.1 °F 63.1 °F 100% 29.89 in 7.0 mi ENE 5.8 mph - N/A   Clear
3:35 AM 62.8 °F 62.8 °F 100% 29.89 in 7.0 mi ENE 6.9 mph - N/A   Clear
3:55 AM 62.6 °F 62.6 °F 100% 29.89 in 7.0 mi NE 6.9 mph - N/A   Clear
4:15 AM 62.1 °F 62.1 °F 100% 29.89 in 7.0 mi ENE 4.6 mph - N/A   Clear
4:35 AM 61.7 °F 61.7 °F 100% 29.89 in 5.0 mi ENE 4.6 mph - N/A   Clear
4:55 AM 61.3 °F 61.3 °F 100% 29.89 in 5.0 mi ENE 4.6 mph - N/A   Clear
5:15 AM 61.0 °F 61.0 °F 100% 29.89 in 4.0 mi ENE 5.8 mph - N/A   Clear
5:35 AM 60.8 °F 60.8 °F 100% 29.89 in 3.0 mi ENE 5.8 mph - N/A   Clear
5:55 AM 60.4 °F 60.4 °F 100% 29.89 in 3.0 mi East 6.9 mph - N/A   Scattered Clouds
6:15 AM 61.0 °F 61.0 °F 100% 29.90 in 3.0 mi ENE 5.8 mph - N/A   Mostly Cloudy
6:35 AM 61.0 °F 61.0 °F 100% 29.90 in 2.0 mi ENE 6.9 mph - N/A   Overcast
6:55 AM 61.3 °F 61.3 °F 100% 29.91 in 1.8 mi East 8.1 mph - N/A   Overcast
7:15 AM 61.7 °F 61.7 °F 100% 29.91 in 2.0 mi East 5.8 mph - N/A   Overcast
7:35 AM 62.1 °F 62.1 °F 100% 29.91 in 2.5 mi ENE 4.6 mph - N/A   Scattered Clouds
7:55 AM 63.1 °F 63.1 °F 100% 29.91 in 4.0 mi NE 6.9 mph - N/A   Clear
8:15 AM 63.1 °F 63.1 °F 100% 29.92 in 4.0 mi ENE 8.1 mph - N/A   Clear
8:35 AM 64.4 °F 62.8 °F 94% 29.92 in 5.0 mi ENE 9.2 mph - N/A   Clear
8:55 AM 63.9 °F 62.1 °F 94% 29.92 in 5.0 mi ENE 4.6 mph - N/A   Clear
9:15 AM 64.4 °F 61.9 °F 92% 29.93 in 5.0 mi ENE 6.9 mph - N/A   Clear
9:35 AM 65.3 °F 61.3 °F 87% 29.92 in 7.0 mi ENE 10.4 mph - N/A   Clear
9:55 AM 66.7 °F 60.4 °F 80% 29.92 in 7.0 mi ENE 9.2 mph - N/A   Clear
10:15 AM 68.9 °F 61.0 °F 76% 29.92 in 7.0 mi ENE 8.1 mph - N/A   Clear
10:35 AM 69.4 °F 59.4 °F 70% 29.92 in 10.0 mi ENE 9.2 mph - N/A   Clear
10:55 AM 70.9 °F 59.7 °F 68% 29.93 in 10.0 mi ENE 9.2 mph - N/A   Clear
11:15 AM 71.8 °F 59.2 °F 64% 29.92 in 10.0 mi NE 13.8 mph - N/A   Clear
11:35 AM 71.4 °F 58.8 °F 64% 29.93 in 10.0 mi ENE 8.1 mph - N/A   Clear
11:55 AM 72.9 °F 58.6 °F 61% 29.94 in 10.0 mi ENE 11.5 mph 17.3 mph N/A   Clear
12:15 PM 72.1 °F 59.5 °F 64% 29.94 in 10.0 mi NE 11.5 mph 17.3 mph N/A   Clear
12:35 PM 73.4 °F 61.5 °F 66% 29.94 in 10.0 mi ENE 10.4 mph - N/A   Clear
12:55 PM 73.9 °F 61.5 °F 65% 29.94 in 10.0 mi NE 13.8 mph - N/A   Clear
1:15 PM 74.3 °F 60.1 °F 61% 29.94 in 10.0 mi ENE 16.1 mph 20.7 mph N/A   Clear
1:35 PM 74.5 °F 60.1 °F 61% 29.93 in 10.0 mi ENE 15.0 mph 21.9 mph N/A   Clear
1:55 PM 75.2 °F 59.2 °F 57% 29.93 in 10.0 mi East 13.8 mph 19.6 mph N/A   Clear
2:15 PM 75.2 °F 56.3 °F 52% 29.92 in 10.0 mi ENE 17.3 mph 23.0 mph N/A   Clear
2:35 PM 75.4 °F 56.1 °F 51% 29.92 in 10.0 mi ENE 12.7 mph 23.0 mph N/A   Clear
2:55 PM 76.6 °F 57.0 °F 51% 29.91 in 10.0 mi ENE 11.5 mph 21.9 mph N/A   Clear
3:15 PM 76.3 °F 55.0 °F 48% 29.91 in 10.0 mi ENE 13.8 mph 23.0 mph N/A   Clear
3:35 PM 77.9 °F 56.8 °F 48% 29.91 in 10.0 mi East 17.3 mph 21.9 mph N/A   Clear
3:55 PM 76.6 °F 55.6 °F 48% 29.90 in 10.0 mi East 15.0 mph 20.7 mph N/A   Clear
4:15 PM 77.4 °F 55.6 °F 47% 29.90 in 10.0 mi ENE 15.0 mph 20.7 mph N/A   Clear
4:35 PM 78.8 °F 56.5 °F 46% 29.89 in 10.0 mi East 15.0 mph 19.6 mph N/A   Clear
4:55 PM 78.4 °F 57.6 °F 49% 29.89 in 10.0 mi ENE 15.0 mph 21.9 mph N/A   Clear
5:15 PM 78.3 °F 56.8 °F 48% 29.89 in 10.0 mi East 10.4 mph 19.6 mph N/A   Clear
5:35 PM 78.4 °F 56.7 °F 47% 29.88 in 10.0 mi ENE 15.0 mph 20.7 mph N/A   Clear
5:55 PM 78.6 °F 56.5 °F 46% 29.88 in 10.0 mi ENE 15.0 mph 19.6 mph N/A   Clear
6:15 PM 78.1 °F 56.3 °F 47% 29.88 in 10.0 mi ENE 11.5 mph 18.4 mph N/A   Clear
6:35 PM 77.9 °F 54.7 °F 45% 29.88 in 10.0 mi ENE 12.7 mph 20.7 mph N/A   Clear
6:55 PM 77.4 °F 54.9 °F 46% 29.89 in 10.0 mi ENE 10.4 mph 17.3 mph N/A   Clear
7:15 PM 77.2 °F 54.3 °F 45% 29.89 in 10.0 mi East 13.8 mph 19.6 mph N/A   Clear
7:35 PM 76.3 °F 54.3 °F 46% 29.89 in 10.0 mi East 11.5 mph 18.4 mph N/A   Clear
7:55 PM 75.6 °F 54.0 °F 47% 29.89 in 10.0 mi East 9.2 mph 18.4 mph N/A   Clear
8:15 PM 75.2 °F 54.0 °F 47% 29.90 in 10.0 mi East 15.0 mph 19.6 mph N/A   Clear
8:35 PM 74.3 °F 54.5 °F 50% 29.90 in 10.0 mi East 10.4 mph 19.6 mph N/A   Clear
8:55 PM 73.0 °F 55.9 °F 55% 29.91 in 10.0 mi NE 9.2 mph - N/A   Clear
9:15 PM 71.8 °F 55.8 °F 57% 29.91 in 10.0 mi ENE 8.1 mph 16.1 mph N/A   Clear
9:35 PM 70.7 °F 56.1 °F 60% 29.91 in 10.0 mi ENE 8.1 mph - N/A   Clear
9:55 PM 70.0 °F 56.8 °F 63% 29.92 in 10.0 mi ENE 9.2 mph - N/A   Clear
10:15 PM 69.3 °F 57.4 °F 66% 29.93 in 10.0 mi ENE 8.1 mph - N/A   Clear
10:35 PM 69.1 °F 55.8 °F 62% 29.94 in 10.0 mi ENE 10.4 mph 18.4 mph N/A   Clear
10:55 PM 68.5 °F 54.3 °F 60% 29.94 in 10.0 mi ENE 9.2 mph 21.9 mph N/A   Clear
11:15 PM 68.0 °F 54.1 °F 61% 29.95 in 10.0 mi ENE 11.5 mph 17.3 mph N/A   Clear
11:35 PM 67.5 °F 53.8 °F 61% 29.95 in 10.0 mi ENE 10.4 mph 18.4 mph N/A   Clear
11:55 PM 66.9 °F 53.1 °F 61% 29.95 in 10.0 mi ENE 12.7 mph 18.4 mph N/A   Clear